Regional Weather Roundup
Issued by NWS

Home | Current Version | Previous Version | Graphics & Text | Print | Product List | Glossary On
Versions: 1 2 3 4 5 6 7 8 9 10 11 12 13 14 15 16 17 18 19 20 21 22 23 24 25 26 27 28 29 30 31 32 33 34 35 36 37 38 39 40 41 42 43 44 45 46 47 48 49 50
000
ASUS45 KTFX 280019
RWRMT
MONTANA HOURLY WEATHER ROUNDUP
NATIONAL WEATHER SERVICE GREAT FALLS MT
519 PM MST THU NOV 27 2014

NOTE: "FAIR" INDICATES FEW OR NO CLOUDS BELOW 12000 FEET WITH NO
SIGNIFICANT WEATHER AND/OR OBSTRUCTIONS TO VISIBILITY.

* THESE STATIONS ARE NOT UNDER NWS QUALITY CONTROL. THEY DO NOT
   REPORT WEATHER SUCH AS PRECIPITATION OR FOG.

MTZ001>007-043-280100-
WEST OF THE DIVIDE
CITY           SKY/WX    TMP DP  RH WIND       PRES   REMARKS
KALISPELL      CLOUDY    43  36  76 S8        29.78F
MISSOULA       MOCLDY    48  37  66 NW9       29.89F
BUTTE          CLOUDY    43  30  60 S9        29.94F
MULLAN PASS    LGT RAIN  36  36 100 S14G29    29.84F WCI  27
* ESSEX        N/A       36  36 100 N/A        N/A
* EUREKA APT   PTCLDY    48  39  71 SE10       N/A
* HAMILTON APT CLOUDY    52  36  55 S14       29.90R
* LIBBY APT    PTCLDY    46  43  89 NE3       29.76F
* LINCOLN      N/A       37  35  92 W1         N/A
* LOOKOUT PASS N/A       40  38  93 S8G15      N/A   WCI  35
* POLSON       N/A       43  41  93 S3G12      N/A
* RONAN APT    MOCLDY    46  39  77 N/A        N/A
* SEELEY LAKE  N/A       36  35  96 N2G9       N/A
* THOMP F APT  PTCLDY    40  28  62 NE4G13     N/A
* YAAK HILL    N/A       44  42  93 NE2G8      N/A
$$

MTZ008-052>055-280100-
SOUTHWEST MONTANA
CITY           SKY/WX    TMP DP  RH WIND       PRES   REMARKS
BOZEMAN        PTCLDY    48  30  50 S9        29.90F
DILLON         MOCLDY    46  30  54 SW10      29.98S
* W YELLOWSTON CLOUDY    37  30  76 SW4G10     N/A
* ENNIS APT    PTCLDY    45  28  51 SE17       N/A
* THREE FORKS  PTCLDY    50  50 100 SW9        N/A
* BOULDER HILL N/A       46  23  40 S8         N/A
* MONIDA PASS  N/A       36  28  73 SE15G20    N/A   WCI  27
* RAYNOLDS PAS N/A       37  21  52 S18G25     N/A   WCI  27
* WHITEHALL    N/A       57  30  36 SW14G24    N/A
* WISE RIVER   N/A       48  31  52 SW4G11     N/A
$$

MTZ009>010-012-014-046-048-049-054-280100-
EAST SLOPES AND CENTRAL MONTANA
CITY           SKY/WX    TMP DP  RH WIND       PRES   REMARKS
CUT BANK       CLEAR     45  36  71 W26       29.69S
GREAT FALLS    CLEAR     48  36  63 W13       29.74R
HELENA         PTCLDY    46  32  58 VRB6      29.82F
MALMSTROM AFB  CLEAR     54  36  51 W20G30    29.74F
* CONRAD       CLEAR     52  37  57 SW20G29    N/A
* DEARBORN     N/A       58  32  37 S20G28     N/A
* EAST GLACIER N/A       38  36  93 W18G26     N/A   WCI  28
* MONARCH      N/A       47  22  37 W18G30     N/A
* PENDROY      N/A       46  31  56 W24G31     N/A
* ROGERS PASS  N/A       41  35  79 SE11G17    N/A
* SAINT MARY   N/A       40  38  93 S7G16      N/A   WCI  35
* SWEET GRASS  N/A       27  27 100 NE6        N/A   WCI  20
* WHITE SULPH  N/A       50  31  48 SW15G26    N/A
$$

MTZ011-013-016-021-035-040-045-047-050-051-280100-
NORTH CENTRAL MONTANA
CITY           SKY/WX    TMP DP  RH WIND       PRES   REMARKS
HAVRE          PTCLDY    36  30  79 NW9       29.72R WCI  29
LEWISTOWN      CLEAR     46  34  63 SW14      29.79F
* N BAR RANCH  CLEAR     52  30  43 W22G30    29.77F
* CHINOOK      PTCLDY    39  34  82 W5        29.72R WCI  35
* FORT BENTON  CLEAR     52  36  55 SW10      29.71F
* CHESTER      N/A       42  33  71 NW1        N/A
* DENTON       N/A       45  27  49 N4G9       N/A
* GEYSER       N/A       49  26  41 SW14G23    N/A
* JUDITH GAP   N/A       46  28  50 SW23G29    N/A
* LOMA         N/A       53  37  55 W8         N/A
$$

MTZ017>020-022>027-061-062-280100-
NORTHEAST MONTANA
CITY           SKY/WX    TMP DP  RH WIND       PRES   REMARKS
GLASGOW        CLEAR     28  25  89 E9        29.75S WCI  19
GLENDIVE       CLEAR     30  27  89 S9        29.77S WCI  22
JORDAN         CLEAR     39  34  82 W5        29.74S WCI  35
SIDNEY         CLOUDY    32  25  75 NE7       29.82R WCI  25
WOLF POINT     CLEAR     28  25  89 NE9       29.79R WCI  19
* BEAVER HILL  N/A       36  29  76 W6         N/A   WCI  31
* CIRCLE       N/A       39  34  82 W4         N/A
* LINDSAY DVD  N/A       43  33  68 SW17G23    N/A
* NAVAJO       N/A       17  15  92 E9         N/A   WCI   6
* PLENTYWOOD A CLEAR     18  16  92 E14       29.82F WCI   4
* POPLAR APT   CLEAR     25  21  85 N/A       29.79R
* SACO         N/A       29  28  96 E8         N/A   WCI  21
$$

MTZ028>042-056>058-280100-
SOUTHCENTRAL AND SOUTHEAST MONTANA
CITY           SKY/WX    TMP DP  RH WIND       PRES   REMARKS
BAKER          CLEAR     37  30  76 W9        29.79F WCI  30
BILLINGS       PTCLDY    46  30  54 W24G29    29.83F
LIVINGSTON     PTCLDY    54  28  37 SW32G44   29.83F
MILES CITY     CLEAR     39  34  82 S5        29.79S WCI  35
* BIG TIMBER A PTCLDY    54  28  37 SW18G31   29.82S
* FORSYTH APT  CLEAR     48  34  59 CALM      29.79F
* LAUREL APT   CLEAR     46  23  40 SW9        N/A
* ALZADA       N/A       39  30  70 E3         N/A
* HYSHAM       N/A       50  26  39 W6G11      N/A
* LAME DEER    N/A       48  29  48 SW12G17    N/A
* REED POINT   N/A       42  36  79 SW1G9      N/A
* ROSCOE HILL  N/A       52  13  21 SW22G37    N/A
$$

REGIONAL REPORTS...DAKOTAS
CITY           SKY/WX    TMP DP  RH WIND       PRES   REMARKS
WILLISTON      CLOUDY    19  14  81 E10       29.85S WCI   8
DICKINSON      CLOUDY    25  19  78 S16       29.78F WCI  12
BEACH          CLEAR     27  25  92 E5        29.77F WCI  21
CROSBY         FOG       14  14 100 E14       29.90F WCI  -1
TIOGA          CLOUDY    14  14 100 SE15      29.90F WCI  -1
BISMARCK       LGT SNOW  12   9  88 SE18      29.99F WCI  -5
GRAND FORKS    CLOUDY     5  -2  72 S13       30.25F WCI -12
FARGO          MOCLDY     9  -2  61 S13       30.26F WCI  -7
BUFFALO SD     PTCLDY    28  21  75 S9        29.77F WCI  19
RAPID CITY     CLEAR     32  27  82 SE5       29.87F WCI  27
$$

REGIONAL REPORTS...WYOMING/IDAHO/WASHINGTON
CITY           SKY/WX    TMP DP  RH WIND       PRES   REMARKS
GILLETTE       CLEAR     45  30  56 SW15      29.91R
SHERIDAN       CLEAR     52  27  38 NE5       29.87S
CODY           PTCLDY    52  28  40 SW10      29.97S
YELLOWSTONE LA CLOUDY    34  30  85 CALM      30.18F
SALMON         CLOUDY    45  34  65 SE5       30.00S
MULLAN PASS    LGT RAIN  36  36 100 S14G29    29.84S WCI  27
SAND POINT     CLOUDY    46  46 100 S7        29.76S
SPOKANE        FAIR      52  43  72 S15       29.78F
$$

REGIONAL REPORTS...ALBERTA
CITY           SKY/WX    TMP DP  RH WIND       PRES   REMARKS
CALGARY        LGT SNOW  14  10  84 N14       29.75F VSB 2 1/2 WCI  -1
LETHBRIDGE     CLOUDY    27  25  92 NW7       29.73F WCI  19
MEDICINE HAT   FOG       28  28 100 N7        29.73S WCI  21
EDMONTON       LGT SNOW   3  -2  79 NE13G18   29.97S VSB 1    WCI -14
$$

REGIONAL REPORTS...SASKATCHEWAN
CITY           SKY/WX    TMP DP  RH WIND       PRES   REMARKS
SWIFT CURRENT  FOG       19  18  96 E18G28    29.76S WCI   4
REGINA         CLOUDY    18  14  84 E13       29.93F WCI   5
VAL MARIE      N/A       27  25  92 E8         N/A   WCI  19
ASSINIBOIA     N/A       18  14  84 E15        N/A   WCI   4
CORONACH       N/A       19  18  96 E12        N/A   WCI   6

$$



USA.gov is the U.S. government's official web portal to all federal, state and local government web resources and services.